Regional Weather Roundup
Issued by NWS

Home | Current Version | Previous Version | Graphics & Text | Print | Product List | Glossary On
Versions: 1 2 3 4 5 6 7 8 9 10 11 12 13 14 15 16 17 18 19 20 21 22 23 24 25 26 27 28 29 30 31 32 33 34 35 36 37 38 39 40 41 42 43 44 45 46 47 48 49 50
000
ASUS43 KIND 252359
RWRIN

WEATHER ROUNDUP FOR INDIANA
NATIONAL WEATHER SERVICE INDIANAPOLIS IN
800 PM EDT MON JUL 25 2016

NOTE: "FAIR" INDICATES FEW OR NO CLOUDS BELOW 12,000 FEET WITH NO
SIGNIFICANT WEATHER AND/OR OBSTRUCTIONS TO VISIBILITY.

* - STATION DOES NOT REPORT WEATHER SUCH AS PRECIPITATION OR FOG.

+ - STATION NOT QUALITY CONTROLLED BY THE NATIONAL WEATHER SERVICE.
    USE DATA WITH CAUTION...ESPECIALLY DEWPOINT AND RELATIVE
    HUMIDITY OBSERVATIONS.

INZ001>003-010>013-019-020-260100-
NORTHWEST INDIANA

CITY           SKY/WX    TMP DP  RH WIND       PRES   REMARKS
GARY /AIRPORT/ PTSUNNY   82  64  54 E5        29.99S
KNOX *+        CLOUDY    79  54  41 N3        29.99F
RENSSELAER +   CLOUDY    81  72  74 CALM      29.99S

$$

LMZ046-743>745-260100-
SOUTHERN LAKE MICHIGAN

STATION/POSITION TIME  TEMP    WIND        PRES    WAVE
                       AIR SEA DIR/SP/G            HT
                 (UTC) (F)     (DEG/KT/KT) (MB)    (FT)
BURNS HARBOR     2300   79      60/  7/  8 1015.9S
MICHIGAN CITY    2320   78      20/  4/  4   N/A
5NW MICH CITY    2300   76 76  100/  4/  6   N/A     1

$$

INZ004-005-014>016-021>024-260100-
NORTH CENTRAL INDIANA

CITY           SKY/WX    TMP DP  RH WIND       PRES   REMARKS
ELKHART        CLOUDY    81  68  65 NW9       30.00S
GOSHEN         SUNNY     81  61  50 NW10      29.99S
6HR MIN TEMP:  81; 6HR MAX TEMP:  87;

SOUTH BEND     CLOUDY    80  61  52 N6        30.00F
6HR MIN TEMP:  79; 6HR MAX TEMP:  83;


$$

INZ006>009-017-018-025>027-260100-
NORTHEAST INDIANA

CITY           SKY/WX    TMP DP  RH WIND       PRES   REMARKS
ANGOLA *+        N/A     84  79  84 NW8       29.98R HX  96
FORT WAYNE     PTSUNNY   83  64  52 NW8       29.98R
6HR MIN TEMP:  82; 6HR MAX TEMP:  87;


$$

INZ028-029-035-036-043>045-051>053-260100-
WEST CENTRAL INDIANA

CITY           SKY/WX    TMP DP  RH WIND       PRES   REMARKS
CRAWFORDSVL +  CLOUDY    80  74  81 NW3       29.99R
6HR MIN TEMP:  80; 6HR MAX TEMP:  85;

LAFAYETTE      MOSUNNY   81  72  74 N3        29.98R
6HR MIN TEMP:  81; 6HR MAX TEMP:  86;

TERRE HAUTE    CLOUDY    84  74  71 N3        29.97S
6HR MIN TEMP:  84; 6HR MAX TEMP:  89;


$$

INZ030>032-037>040-046>048-054>057-064-065-260100-
CENTRAL INDIANA

CITY           SKY/WX    TMP DP  RH WIND       PRES   REMARKS
COLUMBUS       SUNNY     82  77  83 N6        29.98R
INDIANAPOLIS   CLOUDY    84  72  67 NW8       29.98S
6HR MIN TEMP:  84; 6HR MAX TEMP:  90;

-EAGLE CREEK   CLOUDY    84  74  71 NW6       29.97S
6HR MIN TEMP:  82; 6HR MAX TEMP:  89; 6HR PCP:  0.02;

KOKOMO *+      MOSUNNY   81  70  69 NW5       29.99R
6HR MIN TEMP:  81; 6HR MAX TEMP:  88;

SHELBYVILLE    PTSUNNY   85  74  69 SW5       29.97R
6HR MIN TEMP:  85; 6HR MAX TEMP:  91;


$$

INZ033-034-041-042-049-050-058-059-260100-
EAST CENTRAL INDIANA

CITY           SKY/WX    TMP DP  RH WIND       PRES   REMARKS
MUNCIE         SUNNY     84  71  65 NW7       29.99R
6HR MIN TEMP:  84; 6HR MAX TEMP:  88;


$$

INZ060-061-067>069-081>083-085>088-260100-
SOUTHWEST INDIANA

CITY           SKY/WX    TMP DP  RH WIND       PRES   REMARKS
EVANSVILLE     CLOUDY    79  74  84 S7        29.98R
6HR MIN TEMP:  75; 6HR MAX TEMP:  87; 6HR PCP:  1.17;

HUNTINGBURG *+ CLOUDY    79  72  78 S6        29.99R
6HR MIN TEMP:  73; 6HR MAX TEMP:  86; 6HR PCP:  0.03;


$$

INZ062-063-066-070>080-084-089>092-260100-
SOUTH CENTRAL AND SOUTHEAST INDIANA

CITY           SKY/WX    TMP DP  RH WIND       PRES   REMARKS
BLOOMINGTON    PTSUNNY   83  73  72 N6        29.99R
6HR MIN TEMP:  83; 6HR MAX TEMP:  90;

MADISON *+     MOCLDY    77  73  88 CALM      30.02R

$$




USA.gov is the U.S. government's official web portal to all federal, state and local government web resources and services.